TimeCDT,TemperatureF,Dew PointF,Humidity,Sea Level PressureIn,VisibilityMPH,Wind Direction,Wind SpeedMPH,Gust SpeedMPH,PrecipitationIn,Events,Conditions,WindDirDegrees,DateUTC
12:13 AM,19.4,14.7,82,30.09,10.0,Calm,Calm,-,N/A,,Scattered Clouds,0,2013-03-23 05:13:00
12:33 AM,20.1,13.5,75,30.08,10.0,Calm,Calm,-,N/A,,Mostly Cloudy,0,2013-03-23 05:33:00
12:53 AM,20.1,12.6,73,30.08,10.0,Calm,Calm,-,N/A,,Scattered Clouds,0,2013-03-23 05:53:00
1:13 AM,19.6,11.1,70,30.07,10.0,Calm,Calm,-,N/A,,Mostly Cloudy,0,2013-03-23 06:13:00
1:33 AM,18.7,10.8,71,30.08,10.0,Calm,Calm,-,N/A,,Scattered Clouds,0,2013-03-23 06:33:00
1:53 AM,16.9,9.1,72,30.08,10.0,West,3.5,-,N/A,,Clear,260,2013-03-23 06:53:00
2:13 AM,13.1,7.9,80,30.09,10.0,West,6.9,-,N/A,,Clear,260,2013-03-23 07:13:00
2:33 AM,11.5,6.8,81,30.09,10.0,Calm,Calm,-,N/A,,Clear,0,2013-03-23 07:33:00
2:53 AM,11.5,7.3,83,30.08,10.0,Calm,Calm,-,N/A,,Clear,0,2013-03-23 07:53:00
3:13 AM,9.9,5.5,83,30.10,10.0,WSW,4.6,-,N/A,,Clear,250,2013-03-23 08:13:00
3:33 AM,9.3,5.4,84,30.10,10.0,West,3.5,-,N/A,,Clear,260,2013-03-23 08:33:00
3:53 AM,9.5,5.7,85,30.10,10.0,Calm,Calm,-,N/A,,Clear,0,2013-03-23 08:53:00
4:13 AM,9.9,5.7,83,30.10,10.0,Calm,Calm,-,N/A,,Clear,0,2013-03-23 09:13:00
4:33 AM,7.5,3.7,85,30.11,10.0,WSW,3.5,-,N/A,,Clear,240,2013-03-23 09:33:00
4:53 AM,6.3,2.5,84,30.11,10.0,WSW,4.6,-,N/A,,Clear,240,2013-03-23 09:53:00
5:13 AM,7.5,3.4,83,30.11,10.0,WSW,4.6,-,N/A,,Clear,240,2013-03-23 10:13:00
5:33 AM,6.1,2.5,85,30.12,10.0,WSW,4.6,-,N/A,,Clear,250,2013-03-23 10:33:00
5:53 AM,7.3,4.1,87,30.10,10.0,Calm,Calm,-,N/A,,Clear,0,2013-03-23 10:53:00
6:13 AM,8.2,4.6,85,30.10,10.0,Calm,Calm,-,N/A,,Clear,0,2013-03-23 11:13:00
6:33 AM,5.9,1.9,84,30.10,10.0,Calm,Calm,-,N/A,,Clear,0,2013-03-23 11:33:00
6:53 AM,2.8,-0.2,87,30.12,10.0,West,4.6,-,N/A,,Clear,260,2013-03-23 11:53:00
7:13 AM,3.9,1.4,89,30.11,10.0,West,3.5,-,N/A,,Clear,260,2013-03-23 12:13:00
7:33 AM,4.6,2.3,90,30.13,10.0,SW,3.5,-,N/A,,Clear,230,2013-03-23 12:33:00
7:53 AM,4.8,1.9,88,30.13,10.0,Calm,Calm,-,N/A,,Clear,0,2013-03-23 12:53:00
8:13 AM,6.3,2.7,85,30.13,10.0,WSW,6.9,-,N/A,,Clear,250,2013-03-23 13:13:00
8:33 AM,8.2,4.1,83,30.13,10.0,Calm,Calm,-,N/A,,Clear,0,2013-03-23 13:33:00
8:53 AM,9.5,5.0,82,30.14,10.0,WSW,4.6,-,N/A,,Clear,250,2013-03-23 13:53:00
9:13 AM,10.8,5.7,80,30.16,10.0,WSW,5.8,-,N/A,,Scattered Clouds,240,2013-03-23 14:13:00
9:33 AM,14.0,8.1,77,30.16,10.0,Calm,Calm,-,N/A,,Scattered Clouds,0,2013-03-23 14:33:00
9:53 AM,17.1,9.5,72,30.15,10.0,Calm,Calm,-,N/A,,Scattered Clouds,0,2013-03-23 14:53:00
10:13 AM,20.1,10.9,68,30.14,10.0,WNW,5.8,-,N/A,,Clear,300,2013-03-23 15:13:00
10:33 AM,21.0,11.8,68,30.14,10.0,Calm,Calm,-,N/A,,Clear,0,2013-03-23 15:33:00
10:53 AM,22.1,13.1,68,30.14,10.0,Calm,Calm,-,N/A,,Clear,0,2013-03-23 15:53:00
11:13 AM,23.2,13.8,67,30.14,10.0,Calm,Calm,-,N/A,,Clear,0,2013-03-23 16:13:00
11:33 AM,23.9,14.7,68,30.15,10.0,WNW,4.6,-,N/A,,Clear,290,2013-03-23 16:33:00
11:53 AM,24.8,15.4,68,30.15,10.0,West,6.9,-,N/A,,Clear,280,2013-03-23 16:53:00
12:13 PM,25.7,16.5,68,30.15,10.0,WNW,3.5,-,N/A,,Clear,300,2013-03-23 17:13:00
12:33 PM,26.6,17.2,68,30.14,10.0,WNW,4.6,-,N/A,,Clear,300,2013-03-23 17:33:00
12:53 PM,27.5,18.1,68,30.14,10.0,WNW,5.8,-,N/A,,Clear,300,2013-03-23 17:53:00
1:13 PM,28.2,18.9,68,30.14,10.0,WNW,5.8,-,N/A,,Clear,290,2013-03-23 18:13:00
1:33 PM,28.8,19.2,68,30.13,10.0,West,5.8,-,N/A,,Clear,280,2013-03-23 18:33:00
1:52 PM,29.3,19.8,68,30.13,10.0,WNW,4.6,-,N/A,,Clear,300,2013-03-23 18:52:00
2:13 PM,28.9,19.4,68,30.13,10.0,NW,5.8,-,N/A,,Clear,310,2013-03-23 19:13:00
2:33 PM,29.1,19.2,67,30.12,10.0,NW,5.8,-,N/A,,Clear,310,2013-03-23 19:33:00
2:53 PM,29.8,19.6,66,30.11,10.0,WNW,5.8,-,N/A,,Clear,300,2013-03-23 19:53:00
3:13 PM,30.0,19.2,64,30.10,10.0,NW,4.6,-,N/A,,Clear,320,2013-03-23 20:13:00
3:33 PM,30.0,19.4,65,30.10,10.0,NW,4.6,-,N/A,,Clear,320,2013-03-23 20:33:00
3:53 PM,29.8,19.8,66,30.10,10.0,WNW,4.6,-,N/A,,Clear,300,2013-03-23 20:53:00
4:13 PM,30.2,19.8,65,30.10,10.0,WNW,5.8,-,N/A,,Clear,290,2013-03-23 21:13:00
4:33 PM,30.0,19.0,64,30.10,10.0,WNW,4.6,-,N/A,,Clear,290,2013-03-23 21:33:00
4:53 PM,30.0,18.5,62,30.10,10.0,WNW,4.6,-,N/A,,Scattered Clouds,300,2013-03-23 21:53:00
5:13 PM,30.0,19.2,64,30.11,10.0,West,6.9,-,N/A,,Scattered Clouds,280,2013-03-23 22:13:00
5:33 PM,30.0,19.6,65,30.11,10.0,WNW,6.9,-,N/A,,Mostly Cloudy,290,2013-03-23 22:33:00
5:53 PM,29.3,20.8,71,30.11,10.0,WNW,6.9,-,N/A,,Mostly Cloudy,290,2013-03-23 22:53:00
6:12 PM,28.0,21.2,76,30.11,10.0,West,8.1,-,N/A,,Scattered Clouds,280,2013-03-23 23:12:00
6:33 PM,27.1,20.5,76,30.12,10.0,West,9.2,-,N/A,,Scattered Clouds,270,2013-03-23 23:33:00
6:53 PM,26.4,20.3,78,30.12,10.0,West,8.1,-,N/A,,Scattered Clouds,280,2013-03-23 23:53:00
7:13 PM,25.7,20.1,79,30.13,10.0,West,8.1,-,N/A,,Mostly Cloudy,280,2013-03-24 00:13:00
7:33 PM,25.2,19.4,79,30.13,10.0,West,9.2,-,N/A,,Scattered Clouds,280,2013-03-24 00:33:00
7:53 PM,24.8,19.2,79,30.13,10.0,West,9.2,-,N/A,,Mostly Cloudy,280,2013-03-24 00:53:00
8:13 PM,24.1,18.7,80,30.13,10.0,West,10.4,-,N/A,,Overcast,280,2013-03-24 01:13:00
8:33 PM,23.5,18.7,82,30.13,10.0,West,9.2,-,N/A,,Overcast,280,2013-03-24 01:33:00
8:53 PM,23.4,18.5,82,30.13,10.0,WNW,6.9,-,N/A,,Overcast,290,2013-03-24 01:53:00
9:13 PM,23.0,18.5,83,30.13,10.0,WNW,5.8,-,N/A,,Overcast,290,2013-03-24 02:13:00
9:33 PM,22.8,18.5,83,30.14,10.0,West,4.6,-,N/A,,Overcast,280,2013-03-24 02:33:00
9:53 PM,22.5,18.3,84,30.14,10.0,West,4.6,-,N/A,,Mostly Cloudy,280,2013-03-24 02:53:00
10:13 PM,22.1,18.0,84,30.13,10.0,WNW,5.8,-,N/A,,Overcast,300,2013-03-24 03:13:00
10:33 PM,21.9,17.6,83,30.13,10.0,WNW,5.8,-,N/A,,Overcast,300,2013-03-24 03:33:00
10:53 PM,21.7,17.4,83,30.13,10.0,WNW,5.8,-,N/A,,Overcast,300,2013-03-24 03:53:00
11:13 PM,21.6,17.2,83,30.13,10.0,WNW,4.6,-,N/A,,Overcast,300,2013-03-24 04:13:00
11:33 PM,21.2,17.1,84,30.13,10.0,WNW,4.6,-,N/A,,Overcast,290,2013-03-24 04:33:00
11:53 PM,21.0,16.9,84,30.11,10.0,WNW,3.5,-,N/A,,Mostly Cloudy,300,2013-03-24 04:53:00